Regional Weather Roundup
Issued by NWS

Home | Current Version | Previous Version | Text Only | Print | Product List | Glossary Off
Versions: 1 2 3 4 5 6 7 8 9 10 11 12 13 14 15 16 17 18 19 20 21 22 23 24 25 26 27 28 29 30 31 32 33 34 35 36 37 38 39 40 41 42 43 44 45 46 47 48 49 50

000
ASUS43 KLMK 290810
RWRKY
KENTUCKY REGIONAL WEATHER ROUNDUP
NATIONAL WEATHER SERVICE LOUISVILLE KY
400 AM EDT FRI APR 29 2016

NOTE "FAIR" INDICATES FEW OR NO CLOUDS BELOW 12,000 FEET
WITH NO SIGNIFICANT WEATHER AND/OR OBSTRUCTIONS TO VISIBILITY.

KYZ001>023-026-027-061>063-070>075-290900-
WESTERN AND SOUTH CENTRAL KENTUCKY

CITY           SKY/WX    TMP DP  RH WIND       PRES   REMARKS
PADUCAH        CLOUDY    57  51  80 N3        29.99R
HENDERSON      CLOUDY    59  50  72 N7        30.00R
OWENSBORO      CLEAR     60  53  77 N7        30.01R
HOPKINSVILLE   CLEAR     57  53  86 NE3       29.98S
BOWLING GREEN  CLEAR     55  52  89 CALM      29.99S
GLASGOW        CLEAR     53  53 100 CALM      30.00S
$$

KYZ024-025-028>034-038-045-046-053-290900-
NORTH CENTRAL KENTUCKY

CITY           SKY/WX    TMP DP  RH WIND       PRES   REMARKS
LOUISVILLE/SDF PTCLDY    61  50  67 VRB5      29.98F
LOUISVILLE/LOU CLEAR     56  50  80 CALM      29.99S
FORT KNOX      CLEAR     53  50  92 N3        29.97F
$$

KYZ035>037-039>044-047>052-055>060-089>105-290900-
NORTHEAST KENTUCKY

CITY           SKY/WX    TMP DP  RH WIND       PRES   REMARKS
LEXINGTON      CLEAR     57  49  74 CALM      29.99S
COVINGTON      CLOUDY    56  55  97 N5        29.97F FOG
FRANKFORT      CLEAR     55  49  80 CALM      29.97S
$$

KYZ054-064>069-076>088-106>120-290900-
SOUTHEAST KENTUCKY

CITY           SKY/WX    TMP DP  RH WIND       PRES   REMARKS
JACKSON        CLEAR     59  50  72 W3        30.00R
LONDON         CLEAR     54  52  93 CALM      30.01R
SOMERSET       CLEAR     52  52 100 CALM      30.02S FOG
MIDDLESBORO    CLEAR     58  53  84 CALM      30.01R
MONTICELLO     SUNNY     52  51  97 W8        30.03S
$$




USA.gov is the U.S. government's official web portal to all federal, state and local government web resources and services.